Simultaneous Nadir Overpasses (SNOs) Predictions

Prediction of SNOs between AQUA and METOP-A Satellite Orbit:

Table of predicted SNOs for the next 14.0 days since TLE Epoch: 3/1/2013
Index Date (AQUA) Time (AQUA) Lat,Lon (AQUA) SZA (AQUA ) Date (METOP-A) Time (METOP-A) Lat,Lon (METOP-A) SZA (METOP-A ) Distance(km) Time Diff (sec)
1 03/04/2013 03:52:42 73.44, 116.84 79.90 03/04/2013 03:51:34 73.39, 114.81 79.96 64.55 68
2 03/04/2013 04:42:17 -73.93, -76.60 99.58 03/04/2013 04:42:05 -73.94, -76.58 99.57 1.04 12
3 03/04/2013 05:31:46 74.01, 90.88 80.49 03/04/2013 05:32:43 74.02, 90.93 80.49 1.89 57
4 03/06/2013 23:27:01 73.54,-176.94 78.91 03/06/2013 23:25:52 73.46,-178.63 78.93 54.25 69
5 03/07/2013 00:16:34 -73.93, -10.14 100.68 03/07/2013 00:16:25 -73.91, -10.25 100.69 3.60 9
6 03/07/2013 01:06:03 74.00, 157.33 79.39 03/07/2013 01:07:03 73.98, 157.26 79.36 3.01 60
7 03/09/2013 19:01:18 73.61,-110.65 77.88 03/09/2013 19:00:08 73.57,-111.96 77.92 41.62 70
8 03/09/2013 19:50:50 -73.94, 56.27 101.78 03/09/2013 19:50:43 -73.93, 56.20 101.78 2.42 7
9 03/09/2013 20:40:19 74.02,-136.27 78.30 03/09/2013 20:41:21 73.99,-136.30 78.27 2.58 62
10 03/12/2013 14:35:37 73.75, -44.51 76.92 03/12/2013 14:34:25 73.68, -45.30 76.91 25.63 72
11 03/12/2013 15:25:07 -73.97, 122.63 102.85 03/12/2013 15:25:02 -73.94, 122.64 102.88 3.48 5
12 03/12/2013 16:14:35 74.00, -69.80 77.17 03/12/2013 16:15:40 74.01, -69.87 77.17 2.23 65
13 03/15/2013 10:09:55 73.85, 21.69 75.92 03/15/2013 10:08:42 73.79, 21.36 75.88 12.48 73
14 03/15/2013 10:59:23 -73.97,-170.93 103.97 03/15/2013 10:59:21 -73.95,-170.93 103.99 2.55 2




NCC Satellite Simultaneous Nadir Overpasses (SNOs) Prediction Service
